Terminal Aerodrome Forecast
Issued by NWS

Home | Current Version | Previous Version | Text Only | Print | Product List | Glossary Off
Versions: 1 2 3 4 5 6 7 8 9 10 11 12 13 14 15 16 17 18 19 20 21 22 23 24 25 26 27 28 29

000
FTUS43 KABR 250200 AAA
TAFATY
TAF AMD
KATY 250250Z 2503/2524 18013KT 1SM BR OVC002
     FM250400 21010KT 4SM BR OVC005
     FM250800 29015KT 6SM BR OVC010
      TEMPO 2508/2510 SKC
     FM251000 31023G31KT P6SM OVC015
     FM251600 33025G33KT P6SM OVC025=

USA.gov is the U.S. government's official web portal to all federal, state and local government web resources and services.